Addison, TX

6:07 PM CDT on July 29, 2016 (GMT -0500)
Addison

Weather History for KADS - August, 2013

Change the Weather History Date:

Tuesday, August 6, 2013

  Actual Average Record
Temperature  
Mean Temperature 92 °F -  
Max Temperature 102 °F 94 °F 109 °F (2003)
Min Temperature 82 °F 76 °F 73 °F (1997)
Cooling Degree Days 27    
Growing Degree Days 42 (Base 50)    
Moisture  
Dew Point 61 °F    
Average Humidity 39    
Maximum Humidity 62    
Minimum Humidity 25    
Precipitation  
Precipitation 0.00 in - - ()
Sea Level Pressure  
Sea Level Pressure 29.88 in    
Wind  
Wind Speed 8 mph (South)    
Max Wind Speed 15 mph    
Max Gust Speed 31 mph    
Visibility 12 miles    
Events      
Averages and records for this station are not official NWS values.
T = Trace of Precipitation, MM = Missing Value Source: NWS Daily Summary

Daily Weather History Graph

Daily Weather History Graph

Search for Another Location

Airport or City:

Trip Planner

Search our weather history database for the weather conditions in past years. The results will help you decide how hot, cold, wet, or windy it might be!

Date:

Astronomy

Aug. 06, 2013 Rise Set
Actual Time 6:44 AM CDT 8:21 PM CDT
Civil Twilight 6:17 AM CDT 8:48 PM CDT
Nautical Twilight 5:45 AM CDT 9:19 PM CDT
Astronomical Twilight 5:12 AM CDT 9:53 PM CDT
Moon 6:33 AM CDT (8/6) 8:01 PM CDT (8/6)
Length of Visible Light 14h 30m
Length of Day
13h 36m
Waning Crescent, 0% of the Moon is Illuminated
Aug 6
Waning Crescent
Aug 6
New
Aug 14
First Quarter
Aug 20
Full
Aug 28
Last Quarter

Hourly Weather History & Observations

Time (CDT) Temp. Heat Index Dew Point Humidity Pressure Visibility Wind Dir Wind Speed Gust Speed Precip Events Conditions
12:15 AM 89.6 °F 87.3 °F 53.6 °F 29% 29.89 in 10.0 mi South 4.6 mph - N/A   Clear
12:35 AM 89.6 °F 87.7 °F 55.4 °F 31% 29.89 in 10.0 mi South 5.8 mph - N/A   Clear
12:55 AM 87.8 °F 86.1 °F 55.4 °F 33% 29.89 in 10.0 mi South 5.8 mph - N/A   Clear
1:15 AM 89.6 °F 87.7 °F 55.4 °F 31% 29.89 in 10.0 mi South 11.5 mph - N/A   Clear
1:35 AM 87.8 °F 87.1 °F 59.0 °F 38% 29.90 in 10.0 mi South 8.1 mph 17.3 mph N/A   Clear
1:55 AM 87.8 °F 87.6 °F 60.8 °F 40% 29.90 in 10.0 mi South 8.1 mph - N/A   Clear
2:15 AM 87.8 °F 87.6 °F 60.8 °F 40% 29.89 in 10.0 mi South 8.1 mph - N/A   Clear
2:35 AM 87.8 °F 88.5 °F 62.6 °F 43% 29.90 in 10.0 mi South 11.5 mph 16.1 mph N/A   Clear
2:55 AM 86.0 °F 86.6 °F 62.6 °F 45% 29.89 in 10.0 mi South 10.4 mph - N/A   Clear
3:15 AM 86.0 °F 86.6 °F 62.6 °F 45% 29.89 in 10.0 mi South 10.4 mph - N/A   Clear
3:35 AM 86.0 °F 86.6 °F 62.6 °F 45% 29.89 in 10.0 mi South 9.2 mph - N/A   Clear
3:55 AM 86.0 °F 86.6 °F 62.6 °F 45% 29.89 in 10.0 mi South 9.2 mph - N/A   Clear
4:15 AM 84.2 °F 85.0 °F 62.6 °F 48% 29.89 in 10.0 mi South 11.5 mph - N/A   Clear
4:35 AM 84.2 °F 85.0 °F 62.6 °F 48% 29.89 in 10.0 mi South 9.2 mph - N/A   Clear
4:55 AM 82.4 °F 83.4 °F 62.6 °F 51% 29.89 in 10.0 mi South 8.1 mph - N/A   Clear
5:15 AM 82.4 °F 83.4 °F 62.6 °F 51% 29.89 in 10.0 mi South 11.5 mph - N/A   Clear
5:35 AM 82.4 °F 83.9 °F 64.4 °F 54% 29.89 in 10.0 mi South 8.1 mph - N/A   Clear
5:50 AM 82.4 °F 84.6 °F 66.2 °F 58% 29.90 in 13.0 mi South 8.1 mph 15.0 mph N/A   Clear
5:55 AM 82.4 °F 83.9 °F 64.4 °F 54% 29.89 in 10.0 mi SSW 6.9 mph - N/A   Clear
6:47 AM 82.4 °F 85.4 °F 68.0 °F 62% 29.90 in 13.0 mi South 9.2 mph 15.0 mph N/A   Clear
7:47 AM 82.4 °F 85.4 °F 68.0 °F 62% 29.92 in 13.0 mi South 10.4 mph - N/A   Clear
8:47 AM 84.2 °F 87.3 °F 68.0 °F 58% 29.92 in 13.0 mi South 8.1 mph 15.0 mph N/A   Clear
9:50 AM 87.8 °F 90.4 °F 66.2 °F 49% 29.93 in 20.0 mi South 9.2 mph 17.3 mph N/A   Clear
10:47 AM 89.6 °F 91.1 °F 64.4 °F 43% 29.92 in 13.0 mi South 11.5 mph 16.1 mph N/A   Clear
11:48 AM 95.0 °F 96.0 °F 62.6 °F 34% 29.91 in 13.0 mi South 9.2 mph 19.6 mph N/A   Clear
12:50 PM 96.8 °F 98.0 °F 62.6 °F 32% 29.90 in 15.0 mi SSW 9.2 mph 17.3 mph N/A   Clear
1:48 PM 100.4 °F 102.4 °F 62.6 °F 29% 29.89 in 15.0 mi South 11.5 mph 19.6 mph N/A   Clear
2:47 PM 100.4 °F 102.4 °F 62.6 °F 29% 29.87 in 13.0 mi South 9.2 mph 19.6 mph N/A   Partly Cloudy
3:47 PM 102.2 °F 104.2 °F 62.6 °F 27% 29.85 in 13.0 mi South 15.0 mph 31.1 mph N/A   Scattered Clouds
4:47 PM 102.2 °F 103.6 °F 60.8 °F 26% 29.83 in 13.0 mi SSE 11.5 mph 17.3 mph N/A   Scattered Clouds
5:55 PM 102.2 °F 103.6 °F 60.8 °F 26% 29.81 in 15.0 mi SSE 13.8 mph 19.6 mph N/A   Clear
6:47 PM 100.4 °F 100.2 °F 59.0 °F 25% 29.80 in 15.0 mi South 9.2 mph 20.7 mph N/A   Clear
7:47 PM 98.6 °F 98.5 °F 59.0 °F 27% 29.80 in 13.0 mi SSE 10.4 mph 16.1 mph N/A   Clear
8:47 PM 96.8 °F 95.8 °F 57.2 °F 27% 29.80 in 13.0 mi South 9.2 mph 16.1 mph N/A   Clear
9:47 PM 95.0 °F 93.7 °F 57.2 °F 28% 29.84 in 13.0 mi SSE 6.9 mph - N/A   Clear
10:15 PM 91.4 °F 89.4 °F 55.4 °F 29% 29.85 in 10.0 mi South 5.8 mph - N/A   Clear
10:35 PM 91.4 °F 89.4 °F 55.4 °F 29% 29.85 in 10.0 mi South 6.9 mph - N/A   Clear
10:55 PM 91.4 °F 89.4 °F 55.4 °F 29% 29.86 in 10.0 mi SSE 6.9 mph - N/A   Clear
11:15 PM 91.4 °F 89.4 °F 55.4 °F 29% 29.86 in 10.0 mi South 8.1 mph - N/A   Clear
11:35 PM 91.4 °F 89.4 °F 55.4 °F 29% 29.85 in 10.0 mi South 6.9 mph - N/A   Clear
11:55 PM 91.4 °F 89.4 °F 55.4 °F 29% 29.85 in 10.0 mi SSE 8.1 mph - N/A   Clear